Flag Weather past 2 weeks in Des Moines, Iowa, U.S.A.

Now
28 °F

Light snow. Overcast.


Feels Like: 14 °F
Forecast: 26 / 31 °F
Wind: 22 mph from Northwest

Location: Des Moines International Airport

Current Time: Nov 24, 2014 at 3:46:46 PM

Latest Report: Nov 24, 2014 at 2:54 PM


Visibility: 9 mi

Pressure: 29.75 "Hg

Humidity: 64%

Dew point: 17 °F

Location of Des MoinesLocation

Historic Weather in Des Moines — Graph

°F

Des Moines temperature yesterday

Maximum temperature yesterday: 55 °F (at 12:54 AM)
Minimum temperature yesterday: 36 °F (at 10:54 PM)
Average temperature yesterday: 49 °F

Past Weeks' High & Low Weather Summary

 TemperatureHumidityPressure
High65 °F (Nov 10, 12:54 PM)97% (Nov 22, 6:54 AM)30.52 "Hg (Nov 22, 6:54 AM)
Low8 °F (Nov 18, 1:54 AM)31% (Nov 14, 2:54 PM)29.34 "Hg (Nov 23, 2:54 PM)
Average29 °F67%30.08 "Hg
* Reported Nov 9 1:54 PM — Nov 24 1:54 PM, Des Moines, Weather by CustomWeather, © 2014

Note: Actual official high and low records may vary slightly from our data, if they occured in-between our weather recording intervals... More about our weather records

Advertising

Des Moines weather history for previous 24 hours

 ConditionsComfort  
Time TempWeatherWind HumidityBarometerVisibility
1:54 PM
Nov 24
28 °FLight snow. Mostly cloudy.25 mph64%29.70 "Hg9 mi
12:54 PM27 °FLight snow. Overcast.28 mph66%29.68 "Hg9 mi
11:54 AM27 °FLight snow. Overcast.25 mph63%29.65 "Hg6 mi
10:54 AM27 °FLight snow. Overcast.23 mph66%29.62 "Hg10 mi
9:54 AM27 °FOvercast.23 mph66%29.60 "Hg10 mi
8:54 AM26 °FOvercast.22 mph69%29.57 "Hg10 mi
7:54 AM26 °FOvercast.22 mph69%29.54 "Hg10 mi
6:54 AM28 °FOvercast.28 mph72%29.49 "Hg10 mi
5:54 AM29 °FOvercast.23 mph75%29.46 "Hg10 mi
4:54 AM30 °FOvercast.20 mph72%29.45 "Hg10 mi
3:54 AM31 °FOvercast.28 mph73%29.43 "Hg10 mi
2:54 AM33 °FOvercast.28 mph75%29.41 "Hg10 mi
1:54 AM33 °FOvercast.24 mph75%29.39 "Hg10 mi
12:54 AM34 °FMostly cloudy.25 mph76%29.39 "Hg10 mi
11:54 PM
Nov 23
36 °FMostly cloudy.21 mph75%29.39 "Hg10 mi
10:54 PM36 °FLight snow. Mostly cloudy.17 mph82%29.40 "Hg7 mi
9:54 PM39 °FLight rain. Mostly cloudy.18 mph70%29.40 "Hg10 mi
8:54 PM41 °FLight rain. Mostly cloudy.22 mph82%29.39 "Hg10 mi
7:54 PM41 °FLight rain. Fog.22 mph86%29.40 "Hg5 mi
6:54 PM44 °FLight rain. Mostly cloudy.22 mph89%29.38 "Hg8 mi
5:54 PM46 °FDrizzle. Overcast.22 mph83%29.39 "Hg9 mi
4:54 PM47 °FDrizzle. Mostly cloudy.14 mph86%29.37 "Hg8 mi
3:54 PM48 °FFog.13 mph89%29.37 "Hg2 mi
Weather by CustomWeather, © 2014

See weather overviewHow to use our weather pages